| time (UTC) | temp F | wind direction | speed MPH | gust MPH | rain 1hr in | rain 24hr in | rain mn in | humidity % | barometer mb |
| 20260504025541 | 51 | 50 | 13.0 | 17.0 | 0.00 | 0.26 | 0.26 | 78 | 1009.9 |
| 20260504025037 | 51 | 67 | 5.0 | 9.0 | 0.00 | 0.26 | 0.26 | 82 | 1009.9 |
| 20260504024535 | 50 | 57 | 6.0 | 7.0 | 0.00 | 0.26 | 0.26 | 79 | 1010.3 |
| 20260504024031 | 50 | 67 | 4.0 | 5.0 | 0.00 | 0.26 | 0.26 | 84 | 1009.9 |
| 20260504023528 | 50 | 355 | 0.0 | 5.0 | 0.00 | 0.26 | 0.26 | 82 | 1010.4 |
| 20260504023024 | 51 | 2 | 0.0 | 10.0 | 0.00 | 0.26 | 0.26 | 77 | 1009.9 |
| 20260504022520 | 51 | 77 | 5.0 | 11.0 | 0.00 | 0.26 | 0.26 | 78 | 1009.9 |
| 20260504022016 | 51 | 35 | 4.0 | 10.0 | 0.00 | 0.26 | 0.26 | 79 | 1010.1 |
| 20260504021514 | 51 | 96 | 8.0 | 11.0 | 0.00 | 0.26 | 0.26 | 78 | 1010.1 |
| 20260504021011 | 51 | 82 | 4.0 | 10.0 | 0.00 | 0.26 | 0.26 | 79 | 1009.7 |
| 20260504020508 | 50 | 42 | 6.0 | 10.0 | 0.00 | 0.26 | 0.26 | 81 | 1009.8 |
| 20260504020004 | 51 | 52 | 6.0 | 21.0 | 0.00 | 0.26 | 0.26 | 80 | 1009.6 |
| 20260504015500 | 50 | 75 | 8.0 | 10.0 | 0.00 | 0.26 | 0.26 | 84 | 1009.6 |
| 20260504014956 | 50 | 53 | 10.0 | 12.0 | 0.00 | 0.26 | 0.26 | 84 | 1009.7 |
| 20260504014452 | 50 | 45 | 8.0 | 11.0 | 0.00 | 0.26 | 0.26 | 85 | 1009.7 |
| 20260504013950 | 51 | 57 | 5.0 | 14.0 | 0.00 | 0.26 | 0.26 | 84 | 1009.9 |
| 20260504013448 | 51 | 38 | 7.0 | 18.0 | 0.00 | 0.26 | 0.26 | 79 | 1010.2 |
| 20260504012944 | 51 | 67 | 10.0 | 19.0 | 0.00 | 0.26 | 0.26 | 81 | 1010.3 |
| 20260504012442 | 50 | 43 | 3.0 | 12.0 | 0.00 | 0.26 | 0.26 | 85 | 1010.1 |
| 20260504011940 | 51 | 23 | 3.0 | 12.0 | 0.02 | 0.26 | 0.26 | 87 | 1010.4 |
| 20260504011436 | 51 | 43 | 9.0 | 15.0 | 0.17 | 0.26 | 0.26 | 89 | 1010.5 |
| 20260504010932 | 50 | 52 | 9.0 | 12.0 | 0.28 | 0.26 | 0.26 | 90 | 1010.8 |
| 20260504010428 | 50 | 317 | 4.0 | 4.0 | 0.26 | 0.23 | 0.23 | 92 | 1011.4 |
| 20260504005924 | 51 | 277 | 3.0 | 4.0 | 0.19 | 0.20 | 0.20 | 93 | 1011.6 |
| 20260504005421 | 51 | 98 | 0.0 | 1.0 | 0.21 | 0.19 | 0.19 | 92 | 1011.5 |
| 20260504004919 | 51 | 3 | 0.0 | 1.0 | 0.24 | 0.17 | 0.17 | 92 | 1011.7 |
| 20260504004416 | 52 | 230 | 0.0 | 2.0 | 0.21 | 0.15 | 0.15 | 91 | 1011.4 |
| 20260504003913 | 51 | 34 | 2.0 | 2.0 | 0.12 | 0.13 | 0.13 | 88 | 1011.6 |
| 20260504003409 | 52 | 291 | 0.0 | 2.0 | 0.02 | 0.11 | 0.11 | 87 | 1011.6 |
| 20260504002906 | 52 | 308 | 0.0 | 2.0 | 0.12 | 0.11 | 0.11 | 84 | 1011.4 |
| 20260504002403 | 53 | 118 | 3.0 | 3.0 | 0.14 | 0.10 | 0.10 | 81 | 1011.1 |
| 20260504001900 | 54 | 283 | 5.0 | 7.0 | 0.19 | 0.09 | 0.09 | 73 | 1011.0 |
| 20260504001358 | 56 | 292 | 5.0 | 8.0 | 0.14 | 0.07 | 0.07 | 67 | 1010.5 |
| 20260504000854 | 58 | 291 | 4.0 | 6.0 | 0.05 | 0.06 | 0.06 | 63 | 1009.8 |
| 20260504000353 | 63 | 117 | 1.0 | 7.0 | 0.00 | 0.05 | 0.05 | 44 | 1009.0 |
| 20260503235849 | 65 | 279 | 4.0 | 5.0 | 0.00 | 0.05 | 0.05 | 38 | 1008.8 |
| 20260503235347 | 66 | 296 | 2.0 | 3.0 | 0.00 | 0.05 | 0.05 | 33 | 1008.3 |
| 20260503234844 | 66 | 60 | 3.0 | 3.0 | 0.00 | 0.05 | 0.05 | 31 | 1008.1 |
| 20260503234341 | 67 | 305 | 2.0 | 3.0 | 0.00 | 0.05 | 0.05 | 31 | 1008.1 |
| 20260503233839 | 66 | 310 | 2.0 | 3.0 | 0.00 | 0.05 | 0.05 | 31 | 1008.2 |
| 20260503233335 | 66 | 308 | 2.0 | 5.0 | 0.00 | 0.05 | 0.05 | 31 | 1007.9 |
| 20260503232831 | 66 | 296 | 4.0 | 9.0 | 0.00 | 0.05 | 0.05 | 31 | 1007.9 |
| 20260503232329 | 66 | 290 | 7.0 | 8.0 | 0.00 | 0.05 | 0.05 | 31 | 1007.8 |
| 20260503231827 | 68 | 279 | 2.0 | 3.0 | 0.00 | 0.05 | 0.05 | 31 | 1008.1 |
| 20260503231323 | 69 | 281 | 3.0 | 3.0 | 0.00 | 0.05 | 0.05 | 31 | 1007.8 |
| 20260503230819 | 69 | 259 | 5.0 | 5.0 | 0.00 | 0.05 | 0.05 | 29 | 1008.1 |
| 20260503230316 | 69 | 151 | 4.0 | 12.0 | 0.00 | 0.05 | 0.05 | 28 | 1008.2 |
| 20260503225814 | 70 | 171 | 7.0 | 11.0 | 0.00 | 0.05 | 0.05 | 27 | 1007.7 |
| 20260503225309 | 70 | 144 | 4.0 | 9.0 | 0.00 | 0.05 | 0.05 | 25 | 1008.1 |
| 20260503224806 | 71 | 322 | 0.0 | 2.0 | 0.00 | 0.05 | 0.05 | 28 | 1008.3 |
| 20260503224304 | 71 | 80 | 1.0 | 6.0 | 0.00 | 0.05 | 0.05 | 24 | 1008.2 |
| 20260503223801 | 72 | 286 | 2.0 | 4.0 | 0.00 | 0.05 | 0.05 | 26 | 1008.4 |
| 20260503223259 | 71 | 297 | 7.0 | 11.0 | 0.00 | 0.05 | 0.05 | 27 | 1008.5 |
| 20260503222755 | 73 | 262 | 2.0 | 12.0 | 0.00 | 0.05 | 0.05 | 27 | 1008.5 |
| 20260503222253 | 72 | 151 | 6.0 | 7.0 | 0.00 | 0.05 | 0.05 | 23 | 1008.5 |
| 20260503221751 | 71 | 180 | 6.0 | 15.0 | 0.00 | 0.05 | 0.05 | 24 | 1008.8 |
| 20260503221249 | 71 | 169 | 4.0 | 13.0 | 0.00 | 0.05 | 0.05 | 24 | 1008.9 |
| 20260503220745 | 71 | 154 | 7.0 | 13.0 | 0.00 | 0.05 | 0.05 | 23 | 1008.9 |
| 20260503220242 | 72 | 285 | 4.0 | 15.0 | 0.00 | 0.05 | 0.05 | 23 | 1008.9 |
| 20260503215738 | 72 | 117 | 2.0 | 9.0 | 0.00 | 0.05 | 0.05 | 22 | 1008.9 |
| 20260503215236 | 73 | 159 | 4.0 | 11.0 | 0.00 | 0.05 | 0.05 | 23 | 1008.7 |
| 20260503214734 | 76 | 221 | 4.0 | 9.0 | 0.00 | 0.05 | 0.05 | 23 | 1009.1 |
| 20260503214230 | 78 | 282 | 4.0 | 5.0 | 0.00 | 0.05 | 0.05 | 23 | 1009.0 |
| 20260503213728 | 77 | 188 | 7.0 | 8.0 | 0.00 | 0.05 | 0.05 | 21 | 1009.1 |
| 20260503213225 | 78 | 333 | 2.0 | 6.0 | 0.00 | 0.05 | 0.05 | 24 | 1009.2 |
| 20260503212722 | 77 | 243 | 5.0 | 13.0 | 0.00 | 0.05 | 0.05 | 21 | 1009.5 |
| 20260503212220 | 76 | 262 | 2.0 | 10.0 | 0.00 | 0.05 | 0.05 | 24 | 1009.7 |
| 20260503211717 | 73 | 57 | 1.0 | 4.0 | 0.00 | 0.05 | 0.05 | 23 | 1009.8 |
| 20260503211213 | 74 | 254 | 1.0 | 4.0 | 0.00 | 0.05 | 0.05 | 22 | 1009.7 |
| 20260503210709 | 73 | 198 | 3.0 | 4.0 | 0.00 | 0.05 | 0.05 | 24 | 1010.2 |
| 20260503210206 | 74 | 258 | 2.0 | 4.0 | 0.00 | 0.05 | 0.05 | 26 | 1010.2 |
| 20260503205701 | 76 | 287 | 4.0 | 6.0 | 0.00 | 0.05 | 0.05 | 24 | 1010.2 |
| 20260503205158 | 78 | 210 | 7.0 | 9.0 | 0.00 | 0.05 | 0.05 | 22 | 1010.2 |
| 20260503204654 | 76 | 256 | 6.0 | 7.0 | 0.00 | 0.05 | 0.05 | 24 | 1010.3 |
| 20260503204152 | 74 | 251 | 3.0 | 6.0 | 0.00 | 0.05 | 0.05 | 25 | 1010.4 |
| 20260503203649 | 76 | 296 | 3.0 | 4.0 | 0.00 | 0.05 | 0.05 | 25 | 1010.4 |
| 20260503203147 | 75 | 299 | 2.0 | 5.0 | 0.00 | 0.05 | 0.05 | 25 | 1010.4 |
| 20260503202644 | 77 | 292 | 4.0 | 5.0 | 0.00 | 0.05 | 0.05 | 24 | 1010.5 |
| 20260503202142 | 76 | 42 | 9.0 | 10.0 | 0.00 | 0.05 | 0.05 | 20 | 1010.7 |
| 20260503201640 | 77 | 277 | 3.0 | 4.0 | 0.00 | 0.05 | 0.05 | 24 | 1010.9 |
| 20260503201137 | 74 | 299 | 4.0 | 7.0 | 0.00 | 0.05 | 0.05 | 24 | 1011.0 |
| 20260503200633 | 75 | 274 | 1.0 | 5.0 | 0.00 | 0.05 | 0.05 | 26 | 1011.1 |
| 20260503200129 | 75 | 255 | 4.0 | 4.0 | 0.00 | 0.05 | 0.05 | 27 | 1011.0 |
| 20260503195627 | 73 | 295 | 2.0 | 4.0 | 0.00 | 0.05 | 0.05 | 25 | 1011.4 |
| 20260503195123 | 75 | 311 | 3.0 | 5.0 | 0.00 | 0.05 | 0.05 | 23 | 1011.2 |
| 20260503194615 | 73 | 285 | 3.0 | 11.0 | 0.00 | 0.05 | 0.05 | 25 | 1011.0 |
| 20260503194109 | 77 | 280 | 4.0 | 7.0 | 0.00 | 0.05 | 0.05 | 25 | 1011.4 |
| 20260503193607 | 75 | 255 | 3.0 | 11.0 | 0.00 | 0.05 | 0.05 | 23 | 1011.5 |
| 20260503193101 | 76 | 282 | 4.0 | 5.0 | 0.00 | 0.05 | 0.05 | 24 | 1011.2 |
| 20260503192558 | 75 | 243 | 2.0 | 10.0 | 0.00 | 0.05 | 0.05 | 22 | 1011.6 |
| 20260503192054 | 76 | 291 | 4.0 | 7.0 | 0.00 | 0.05 | 0.05 | 25 | 1011.8 |
| 20260503191551 | 75 | 266 | 3.0 | 9.0 | 0.00 | 0.05 | 0.05 | 25 | 1011.8 |
| 20260503191048 | 74 | 268 | 3.0 | 6.0 | 0.00 | 0.05 | 0.05 | 26 | 1012.1 |
| 20260503190545 | 73 | 206 | 4.0 | 6.0 | 0.00 | 0.05 | 0.05 | 22 | 1011.9 |
| 20260503190042 | 75 | 265 | 5.0 | 6.0 | 0.00 | 0.05 | 0.05 | 24 | 1012.2 |
| 20260503185538 | 76 | 255 | 3.0 | 6.0 | 0.00 | 0.05 | 0.05 | 22 | 1012.5 |
| 20260503185033 | 73 | 282 | 2.0 | 4.0 | 0.00 | 0.05 | 0.05 | 24 | 1012.2 |
| 20260503184529 | 72 | 140 | 2.0 | 6.0 | 0.00 | 0.05 | 0.05 | 21 | 1012.4 |
| 20260503184026 | 73 | 11 | 2.0 | 4.0 | 0.00 | 0.05 | 0.05 | 20 | 1012.3 |
| 20260503183523 | 74 | 137 | 9.0 | 12.0 | 0.00 | 0.05 | 0.05 | 21 | 1012.8 |
| 20260503183020 | 75 | 171 | 2.0 | 5.0 | 0.00 | 0.05 | 0.05 | 22 | 1012.4 |
| 20260503182518 | 75 | 239 | 4.0 | 7.0 | 0.00 | 0.05 | 0.05 | 25 | 1012.7 |
| 20260503182016 | 74 | 100 | 2.0 | 7.0 | 0.00 | 0.05 | 0.05 | 21 | 1012.8 |
| 20260503181512 | 73 | 257 | 6.0 | 8.0 | 0.00 | 0.05 | 0.05 | 23 | 1012.9 |
| 20260503181008 | 74 | 208 | 4.0 | 10.0 | 0.00 | 0.05 | 0.05 | 21 | 1012.8 |
| 20260503180506 | 72 | 337 | 0.0 | 7.0 | 0.00 | 0.05 | 0.05 | 21 | 1012.7 |
| 20260503180004 | 74 | 283 | 5.0 | 6.0 | 0.00 | 0.05 | 0.05 | 24 | 1012.8 |
| 20260503175501 | 74 | 132 | 6.0 | 7.0 | 0.00 | 0.05 | 0.05 | 22 | 1013.1 |
| 20260503174957 | 72 | 197 | 4.0 | 9.0 | 0.00 | 0.05 | 0.05 | 24 | 1012.8 |
| 20260503174455 | 71 | 192 | 3.0 | 13.0 | 0.00 | 0.05 | 0.05 | 21 | 1013.1 |
| 20260503173950 | 72 | 155 | 5.0 | 7.0 | 0.00 | 0.05 | 0.05 | 22 | 1012.8 |
| 20260503173446 | 72 | 65 | 5.0 | 6.0 | 0.00 | 0.05 | 0.05 | 21 | 1012.9 |
| 20260503172943 | 72 | 282 | 3.0 | 9.0 | 0.00 | 0.05 | 0.05 | 23 | 1013.2 |
| 20260503172440 | 71 | 316 | 2.0 | 4.0 | 0.00 | 0.05 | 0.05 | 23 | 1013.2 |
| 20260503171937 | 71 | 229 | 2.0 | 6.0 | 0.00 | 0.05 | 0.05 | 22 | 1013.1 |
| 20260503171433 | 71 | 174 | 2.0 | 9.0 | 0.00 | 0.05 | 0.05 | 21 | 1013.4 |
| 20260503170931 | 71 | 88 | 3.0 | 7.0 | 0.00 | 0.05 | 0.05 | 21 | 1013.5 |
| 20260503170427 | 70 | 94 | 0.0 | 10.0 | 0.00 | 0.05 | 0.05 | 21 | 1013.4 |
| 20260503150820 | 60 | 54 | 6.0 | 7.0 | 0.00 | 0.05 | 0.05 | 34 | 1013.0 |
| 20260503150315 | 59 | 78 | 1.0 | 4.0 | 0.00 | 0.05 | 0.05 | 37 | 1013.0 |
| 20260503140240 | 52 | 47 | 9.0 | 12.0 | 0.00 | 0.05 | 0.05 | 38 | 1013.2 |
| 20260503131209 | 48 | 55 | 6.0 | 13.0 | 0.00 | 0.05 | 0.05 | 42 | 1013.0 |
| 20260503130707 | 48 | 58 | 6.0 | 11.0 | 0.00 | 0.05 | 0.05 | 42 | 1013.0 |
| 20260503130204 | 48 | 54 | 6.0 | 15.0 | 0.00 | 0.05 | 0.05 | 42 | 1012.9 |
| 20260503120130 | 46 | 33 | 9.0 | 11.0 | 0.00 | 0.00 | 0.00 | 44 | 1012.9 |
| 20260503110551 | 46 | 7 | 5.0 | 12.0 | 0.00 | 0.00 | 0.00 | 43 | 1013.1 |
| 20260503090420 | 50 | 68 | 7.0 | 11.0 | 0.00 | 0.00 | 0.00 | 36 | 1013.4 |
| 20260503081347 | 50 | 40 | 6.0 | 11.0 | 0.00 | 0.00 | 0.00 | 36 | 1013.7 |
| 20260503080844 | 50 | 15 | 3.0 | 10.0 | 0.00 | 0.00 | 0.00 | 35 | 1013.8 |
| 20260503080341 | 51 | 48 | 5.0 | 11.0 | 0.00 | 0.00 | 0.00 | 34 | 1013.7 |
| 20260503072817 | 51 | 58 | 6.0 | 9.0 | 0.00 | 0.00 | 0.00 | 33 | 1014.2 |
| 20260503072314 | 51 | 43 | 7.0 | 12.0 | 0.00 | 0.00 | 0.00 | 33 | 1014.2 |
| 20260503071810 | 51 | 344 | 4.0 | 9.0 | 0.00 | 0.00 | 0.00 | 33 | 1014.2 |
| 20260503071308 | 51 | 39 | 8.0 | 8.0 | 0.00 | 0.00 | 0.00 | 33 | 1014.2 |
| 20260503070803 | 51 | 26 | 4.0 | 6.0 | 0.00 | 0.00 | 0.00 | 33 | 1014.1 |
| 20260503070301 | 52 | 47 | 6.0 | 7.0 | 0.00 | 0.00 | 0.00 | 33 | 1013.8 |
| 20260503060215 | 52 | 88 | 4.0 | 7.0 | 0.00 | 0.00 | 0.00 | 31 | 1013.9 |
| 20260503054702 | 53 | 42 | 6.0 | 8.0 | 0.00 | 0.00 | 0.00 | 31 | 1013.8 |
| 20260503054159 | 54 | 49 | 3.0 | 10.0 | 0.00 | 0.00 | 0.00 | 30 | 1013.9 |
| 20260503053657 | 54 | 32 | 5.0 | 9.0 | 0.00 | 0.00 | 0.00 | 30 | 1013.8 |
| 20260503053155 | 55 | 29 | 5.0 | 11.0 | 0.00 | 0.00 | 0.00 | 29 | 1013.8 |
| 20260503052652 | 55 | 32 | 7.0 | 11.0 | 0.00 | 0.00 | 0.00 | 29 | 1013.7 |
| 20260503052148 | 55 | 38 | 6.0 | 13.0 | 0.00 | 0.00 | 0.00 | 29 | 1013.6 |
| 20260503051643 | 55 | 32 | 7.0 | 9.0 | 0.00 | 0.00 | 0.00 | 29 | 1013.7 |
| 20260503051141 | 56 | 35 | 8.0 | 13.0 | 0.00 | 0.00 | 0.00 | 28 | 1013.6 |
| 20260503050638 | 56 | 44 | 7.0 | 13.0 | 0.00 | 0.00 | 0.00 | 28 | 1013.9 |
| 20260503050134 | 56 | 43 | 3.0 | 11.0 | 0.00 | 0.00 | 0.00 | 28 | 1013.7 |
| 20260503045632 | 56 | 41 | 7.0 | 11.0 | 0.00 | 0.00 | 0.00 | 28 | 1013.6 |
| 20260503045129 | 56 | 68 | 9.0 | 11.0 | 0.00 | 0.00 | 0.00 | 28 | 1013.6 |
| 20260503044625 | 57 | 19 | 5.0 | 9.0 | 0.00 | 0.00 | 0.00 | 28 | 1013.6 |
| 20260503044123 | 57 | 40 | 3.0 | 11.0 | 0.00 | 0.00 | 0.00 | 28 | 1013.7 |
| 20260503043620 | 56 | 40 | 6.0 | 12.0 | 0.00 | 0.00 | 0.00 | 28 | 1013.5 |
| 20260503043116 | 57 | 52 | 6.0 | 11.0 | 0.00 | 0.00 | 0.00 | 28 | 1013.6 |
| 20260503042613 | 57 | 22 | 11.0 | 11.0 | 0.00 | 0.00 | 0.00 | 28 | 1013.4 |
| 20260503042109 | 57 | 40 | 6.0 | 15.0 | 0.00 | 0.00 | 0.00 | 27 | 1013.6 |
| 20260503041606 | 57 | 54 | 9.0 | 12.0 | 0.00 | 0.00 | 0.00 | 28 | 1013.6 |
| 20260503041104 | 57 | 45 | 8.0 | 14.0 | 0.00 | 0.00 | 0.00 | 28 | 1013.4 |
| 20260503040601 | 56 | 45 | 5.0 | 11.0 | 0.00 | 0.00 | 0.00 | 28 | 1013.5 |
| 20260503040058 | 56 | 54 | 5.0 | 10.0 | 0.00 | 0.00 | 0.00 | 29 | 1013.2 |
| 20260503035554 | 57 | 43 | 11.0 | 14.0 | 0.00 | 0.00 | 0.00 | 28 | 1013.4 |
| 20260503035052 | 56 | 58 | 9.0 | 14.0 | 0.00 | 0.00 | 0.00 | 30 | 1013.4 |
| 20260503034549 | 57 | 88 | 9.0 | 10.0 | 0.00 | 0.00 | 0.00 | 29 | 1013.4 |
| 20260503034046 | 57 | 44 | 8.0 | 12.0 | 0.00 | 0.00 | 0.00 | 29 | 1013.2 |
| 20260503033543 | 58 | 52 | 4.0 | 16.0 | 0.00 | 0.00 | 0.00 | 27 | 1013.0 |
| 20260503033041 | 60 | 51 | 4.0 | 11.0 | 0.00 | 0.00 | 0.00 | 25 | 1013.2 |
| 20260503032539 | 62 | 68 | 7.0 | 12.0 | 0.00 | 0.00 | 0.00 | 23 | 1013.1 |
| 20260503032037 | 62 | 80 | 6.0 | 12.0 | 0.00 | 0.00 | 0.00 | 22 | 1013.1 |
| 20260503031535 | 62 | 54 | 9.0 | 10.0 | 0.00 | 0.00 | 0.00 | 22 | 1013.0 |
| 20260503031032 | 63 | 64 | 8.0 | 13.0 | 0.00 | 0.00 | 0.00 | 21 | 1012.9 |
| 20260503030528 | 64 | 94 | 7.0 | 13.0 | 0.00 | 0.00 | 0.00 | 21 | 1012.9 |
| 20260503030025 | 64 | 44 | 8.0 | 14.0 | 0.00 | 0.00 | 0.00 | 21 | 1013.0 |